QPF
0.00 0.00 0.00 0.00 0.00 0.00 0.00 0.00 0.00 0.00 0.00 0.00 0.00 0.00 0.00 0.00 0.00 0.00 0.00 0.00 0.00 0.00 0.00 0.00 0.00 0.00 0.00 0.00 0.00 0.00 0.00 0.00 0.00 0.00 0.00 0.00 0.00 0.00 0.00 0.00 0.00 0.00 0.00 0.00 0.00
0.00 0.00 0.00 0.00 0.00 0.00 0.00 0.00 0.00 0.00 0.00 0.00 0.00 0.00 0.00 0.00 0.00 0.00 0.00 0.00 0.00 0.00 0.00 0.00 0.00 0.00 0.00 0.00 0.00 0.00 0.00 0.00 0.00 0.00 0.00 0.00 0.00 0.00 0.00 0.00 0.00 0.00 0.00 0.00 0.00
0.00 0.00 0.00 0.00 0.00 0.00 0.00 0.00 0.00 0.00 0.00 0.00 0.00 0.00 0.00 0.00 0.00 0.00 0.00 0.00 0.00 0.00 0.00 0.00 0.00 0.00 0.00 0.00 0.00 0.00 0.00 0.00 0.00 0.00 0.00 0.00 0.00 0.00 0.00 0.00 0.00 0.00 0.00 0.00 0.00
0.00 0.00 0.00 0.00 0.00 0.00 0.00 0.00 0.00 0.00 0.00 0.00 0.00 0.00 0.00 0.00 0.00 0.00 0.00 0.00 0.00 0.00 0.00 0.00 0.00 0.00 0.00 0.00 0.00 0.00 0.00 0.00 0.00 0.00 0.00 0.00 0.00 0.00 0.00 0.00 0.00 0.00 0.00 0.00 0.00
0.00 0.00 0.00 0.00 0.00 0.00 0.00 0.00 0.00 0.00 0.00 0.00 0.00 0.00 0.00 0.00 0.00 0.00 0.00 0.00 0.00 0.00 0.00 0.00 0.00 0.00 0.00 0.00 0.00 0.00 0.00 0.00 0.00 0.00 0.00 0.00 0.00 0.00 0.00 0.00 0.00 0.00 0.00 0.00 0.00
0.00 0.00 0.00 0.00 0.00 0.00 0.00 0.00 0.00 0.00 0.00 0.00 0.00 0.00 0.00 0.00 0.00 0.00 0.00 0.00 0.00 0.00 0.00 0.00 0.00 0.00 0.00 0.00 0.00 0.00 0.00 0.00 0.00 0.00 0.00 0.00 0.00 0.00 0.00 0.00 0.00 0.00 0.00 0.00 0.00
0.00 0.00 0.00 0.00 0.00 0.00 0.00 0.00 0.00 0.00 0.00 0.00 0.00 0.00 0.00 0.00 0.00 0.00 0.00 0.00 0.00 0.00 0.00 0.00 0.00 0.00 0.00 0.00 0.00 0.00 0.00 0.00 0.00 0.00 0.00 0.00 0.00 0.00 0.00 0.00 0.00 0.00 0.00 0.00 0.00
0.00 0.00 0.00 0.00 0.00 0.00 0.00 0.00 0.00 0.00 0.00 0.00 0.00 0.00 0.00 0.00 0.00 0.00 0.00 0.00 0.00 0.00 0.00 0.00 0.00 0.00 0.00 0.00 0.00 0.00 0.00 0.00 0.00 0.00 0.00 0.00 0.00 0.00 0.00 0.00 0.00 0.00 0.00 0.00 0.00
0.00 0.00 0.00 0.00 0.00 0.00 0.00 0.00 0.00 0.00 0.00 0.00 0.00 0.00 0.00 0.00 0.00 0.00 0.00 0.00 0.00 0.00 0.00 0.00 0.00 0.00 0.00 0.00 0.00 0.00 0.00 0.00 0.00 0.00 0.00 0.00 0.00 0.00 0.00 0.00 0.00 0.00 0.00 0.00 0.00
0.00 0.00 0.00 0.00 0.00 0.00 0.00 0.00 0.00 0.00 0.00 0.00 0.00 0.00 0.00 0.00 0.00 0.00 0.00 0.00 0.00 0.00 0.00 0.00 0.00 0.00 0.00 0.00 0.00 0.00 0.00 0.00 0.00 0.00 0.00 0.00 0.00 0.00 0.00 0.00 0.00 0.00 0.00 0.00 0.00
0.00 0.00 0.00 0.00 0.00 0.00 0.00 0.00 0.00 0.00 0.00 0.00 0.00 0.00 0.00 0.00 0.00 0.00 0.00 0.00 0.00 0.00 0.00 0.00 0.00 0.00 0.00 0.00 0.00 0.00 0.00 0.00 0.00 0.00 0.00 0.00 0.00 0.00 0.00 0.00 0.00 0.00 0.00 0.00 0.00
0.00 0.00 0.00 0.00 0.00 0.00 0.00 0.00 0.00 0.00 0.00 0.00 0.00 0.00 0.00 0.00 0.00 0.00 0.00 0.00 0.00 0.00 0.00 0.00 0.00 0.00 0.00 0.00 0.00 0.00 0.00 0.00 0.00 0.00 0.00 0.00 0.00 0.00 0.00 0.00 0.00 0.00 0.00 0.00 0.00
0.00 0.00 0.00 0.00 0.00 0.00 0.00 0.00 0.00 0.00 0.00 0.00 0.00 0.00 0.00 0.00 0.00 0.00 0.00 0.00 0.00 0.00 0.00 0.00 0.00 0.00 0.00 0.00 0.00 0.00 0.00 0.00 0.00 0.00 0.00 0.00 0.00 0.00 0.00 0.00 0.00 0.00 0.00 0.00 0.00
0.00 0.00 0.00 0.00 0.00 0.00 0.00 0.00 0.00 0.00 0.00 0.00 0.00 0.00 0.00 0.00 0.00 0.00 0.00 0.00 0.00 0.00 0.00 0.00 0.00 0.00 0.00 0.00 0.00 0.00 0.00 0.00 0.00 0.00 0.00 0.00 0.00 0.00 0.00 0.00 0.00 0.00 0.00 0.00 0.00
0.00 0.00 0.00 0.00 0.00 0.00 0.00 0.00 0.00 0.00 0.00 0.00 0.00 0.00 0.00 0.00 0.00 0.00 0.00 0.00 0.00 0.00 0.00 0.00 0.00 0.00 0.00 0.00 0.00 0.00 0.00 0.00 0.00 0.00 0.00 0.00 0.00 0.00 0.00 0.00 0.00 0.00 0.00 0.00 0.00
0.00 0.00 0.00 0.00 0.00 0.00 0.00 0.00 0.00 0.00 0.00 0.00 0.00 0.00 0.00 0.00 0.00 0.00 0.00 0.00 0.00 0.00 0.00 0.00 0.00 0.00 0.00 0.00 0.00 0.00 0.00 0.00 0.00 0.00 0.00 0.00 0.00 0.00 0.00 0.00 0.00 0.00 0.00 0.00 0.00
0.00 0.00 0.00 0.00 0.00 0.00 0.00 0.00 0.00 0.00 0.00 0.00 0.00 0.00 0.00 0.00 0.00 0.00 0.00 0.00 0.00 0.00 0.00 0.00 0.00 0.00 0.00 0.00 0.00 0.00 0.00 0.00 0.00 0.00 0.00 0.00 0.00 0.00 0.00 0.00 0.00 0.00 0.00 0.00 0.00
0.00 0.00 0.00 0.00 0.00 0.00 0.00 0.00 0.00 0.00 0.00 0.00 0.00 0.00 0.00 0.00 0.00 0.00 0.00 0.00 0.00 0.00 0.00 0.00 0.00 0.00 0.00 0.00 0.00 0.00 0.00 0.00 0.00 0.00 0.00 0.00 0.00 0.00 0.00 0.00 0.00 0.00 0.00 0.00 0.00
0.00 0.00 0.00 0.00 0.00 0.00 0.00 0.00 0.00 0.00 0.00 0.00 0.00 0.00 0.00 0.00 0.00 0.00 0.00 0.00 0.00 0.00 0.00 0.00 0.00 0.00 0.00 0.00 0.00 0.00 0.00 0.00 0.00 0.00 0.00 0.00 0.00 0.00 0.00 0.00 0.00 0.00 0.00 0.00 0.00
0.00 0.00 0.00 0.00 0.00 0.00 0.00 0.00 0.00 0.00 0.00 0.00 0.00 0.00 0.00 0.00 0.00 0.00 0.00 0.00 0.00 0.00 0.00 0.00 0.00 0.00 0.00 0.00 0.00 0.00 0.00 0.00 0.00 0.00 0.00 0.00 0.00 0.00 0.00 0.00 0.00 0.00 0.00 0.00 0.00
0.00 0.00 0.00 0.00 0.00 0.00 0.00 0.00 0.00 0.00 0.00 0.00 0.00 0.00 0.00 0.00 0.00 0.00 0.00 0.00 0.00 0.00 0.00 0.00 0.00 0.00 0.00 0.00 0.00 0.00 0.00 0.00 0.00 0.00 0.00 0.00 0.00 0.00 0.00 0.00 0.00 0.00 0.00 0.00 0.00
0.01 0.01 0.00 0.00 0.01 0.00 0.00 0.00 0.00 0.00 0.00 0.00 0.00 0.00 0.00 0.00 0.00 0.00 0.00 0.00 0.00 0.00 0.00 0.00 0.00 0.00 0.00 0.00 0.00 0.00 0.00 0.00 0.00 0.00 0.00 0.00 0.00 0.00 0.00 0.00 0.00 0.00 0.00 0.00 0.00
0.01 0.00 0.00 0.00 0.01 0.00 0.00 0.00 0.00 0.00 0.00 0.00 0.00 0.00 0.00 0.00 0.00 0.00 0.00 0.00 0.00 0.00 0.00 0.00 0.00 0.00 0.00 0.00 0.00 0.00 0.00 0.00 0.00 0.00 0.00 0.00 0.00 0.00 0.00 0.00 0.00 0.00 0.00 0.00 0.00
0.01 0.01 0.00 0.00 0.00 0.00 0.01 0.00 0.00 0.00 0.00 0.00 0.00 0.00 0.00 0.00 0.00 0.00 0.00 0.00 0.00 0.00 0.00 0.00 0.00 0.00 0.00 0.00 0.00 0.00 0.00 0.00 0.00 0.00 0.00 0.00 0.00 0.00 0.00 0.00 0.00 0.00 0.00 0.00 0.00
0.00 0.01 0.01 0.01 0.00 0.00 0.00 0.00 0.00 0.00 0.00 0.00 0.00 0.00 0.00 0.00 0.00 0.00 0.00 0.00 0.00 0.00 0.00 0.00 0.00 0.00 0.00 0.00 0.00 0.00 0.00 0.00 0.00 0.00 0.00 0.00 0.00 0.00 0.00 0.00 0.00 0.00 0.00 0.00 0.00
0.00 0.00 0.01 0.01 0.01 0.01 0.01 0.00 0.00 0.00 0.01 0.00 0.00 0.00 0.00 0.00 0.00 0.00 0.00 0.00 0.00 0.00 0.00 0.00 0.00 0.00 0.00 0.00 0.00 0.00 0.00 0.00 0.00 0.00 0.00 0.00 0.00 0.00 0.00 0.00 0.00 0.00 0.00 0.00 0.00
0.00 0.00 0.01 0.00 0.01 0.01 0.01 0.01 0.00 0.01 0.00 0.00 0.00 0.00 0.00 0.00 0.00 0.00 0.00 0.00 0.00 0.00 0.00 0.00 0.00 0.00 0.00 0.00 0.00 0.00 0.00 0.00 0.00 0.00 0.00 0.00 0.00 0.00 0.00 0.00 0.00 0.00 0.00 0.00 0.00
MSLP
1023.36 1023.09 1022.87 1022.61 1022.33 1022.03 1021.72 1021.34 1021.00 1020.58 1020.16 1019.74 1019.28 1018.80 1018.42 1017.97 1016.94 1016.28 1016.07 1015.60 1015.35 1015.21 1014.83 1014.69 1014.37 1014.00 1014.12 1014.43 1014.52 1014.82 1015.98 1016.00 1015.70 1014.85 1015.24 1015.00 1015.26 1015.44 1015.89 1016.58 1017.11 1017.70 1018.50 1018.80 1019.82
1023.56 1023.31 1023.02 1022.69 1022.38 1022.08 1021.73 1021.36 1020.98 1020.57 1020.12 1019.64 1019.20 1018.76 1018.39 1018.11 1017.45 1016.28 1015.36 1015.29 1015.35 1014.90 1014.77 1014.85 1014.69 1014.22 1014.52 1014.48 1014.68 1015.18 1015.96 1015.66 1015.36 1014.96 1014.87 1014.81 1015.13 1015.73 1016.17 1016.86 1017.79 1018.35 1018.89 1019.24 1019.80
1023.65 1023.39 1023.12 1022.82 1022.45 1022.05 1021.68 1021.35 1020.93 1020.48 1020.04 1019.63 1019.18 1018.65 1018.22 1018.06 1017.40 1015.83 1015.17 1015.17 1015.06 1014.90 1014.91 1014.89 1014.69 1014.65 1014.62 1014.43 1014.63 1014.84 1015.27 1015.21 1015.19 1015.05 1014.93 1014.77 1015.08 1015.51 1016.08 1016.93 1017.14 1018.12 1018.97 1019.42 1019.97
1023.71 1023.43 1023.11 1022.78 1022.43 1022.05 1021.65 1021.24 1020.83 1020.37 1019.94 1019.55 1019.11 1018.58 1017.91 1017.80 1016.96 1015.38 1015.19 1015.05 1014.82 1014.82 1014.93 1014.80 1014.77 1014.85 1014.75 1014.76 1014.47 1014.72 1014.81 1014.81 1015.07 1015.04 1015.12 1015.22 1015.13 1015.54 1015.87 1016.20 1016.18 1017.05 1018.01 1019.09 1019.78
1023.74 1023.47 1023.16 1022.77 1022.36 1021.95 1021.54 1021.10 1020.64 1020.18 1019.80 1019.39 1019.00 1018.62 1017.80 1017.35 1015.92 1014.95 1014.98 1014.89 1014.69 1014.75 1014.88 1014.88 1014.89 1014.83 1014.84 1014.71 1014.45 1014.58 1014.76 1014.88 1015.13 1015.29 1015.35 1015.37 1015.52 1015.74 1015.77 1015.69 1016.17 1016.75 1018.01 1018.75 1019.38
1023.67 1023.42 1023.07 1022.73 1022.32 1021.84 1021.32 1020.83 1020.35 1019.91 1019.53 1019.23 1018.91 1018.64 1018.34 1016.87 1014.57 1014.61 1014.68 1014.73 1014.72 1014.73 1014.83 1014.70 1015.04 1014.88 1014.79 1014.70 1014.75 1014.77 1014.87 1014.99 1015.18 1015.39 1015.48 1015.72 1015.90 1016.10 1015.29 1015.37 1016.40 1016.86 1017.76 1018.45 1018.82
1023.59 1023.31 1023.00 1022.58 1022.10 1021.59 1021.02 1020.45 1019.99 1019.56 1019.20 1018.95 1018.77 1018.56 1017.90 1015.96 1014.43 1014.48 1014.38 1014.55 1014.61 1014.70 1014.84 1014.87 1014.88 1015.15 1015.04 1014.93 1014.79 1014.93 1015.31 1015.40 1015.31 1015.49 1015.81 1015.93 1016.26 1015.54 1015.12 1015.41 1016.39 1016.95 1017.45 1018.02 1018.24
1023.49 1023.18 1022.84 1022.42 1021.84 1021.24 1020.61 1020.00 1019.46 1019.06 1018.78 1018.58 1018.54 1018.35 1016.96 1014.67 1014.50 1014.38 1014.44 1014.53 1014.47 1014.54 1014.71 1014.80 1014.89 1015.16 1015.21 1015.28 1015.24 1015.47 1015.80 1015.96 1015.13 1015.54 1015.96 1016.31 1015.86 1014.67 1014.98 1015.55 1016.26 1016.91 1017.26 1017.34 1017.62
1023.31 1023.03 1022.70 1022.19 1021.58 1020.84 1020.14 1019.31 1018.63 1018.36 1018.24 1018.30 1018.45 1018.03 1016.33 1014.59 1014.50 1014.27 1014.43 1014.51 1014.57 1014.52 1014.63 1014.76 1015.04 1015.35 1015.44 1015.83 1016.11 1016.02 1016.13 1015.96 1015.74 1015.47 1016.02 1016.52 1015.96 1014.90 1014.83 1015.39 1016.18 1016.50 1016.92 1016.91 1016.86
1023.27 1022.93 1022.57 1022.03 1021.36 1020.59 1019.68 1018.32 1017.59 1017.97 1017.72 1017.87 1017.73 1017.82 1015.81 1014.88 1014.45 1014.32 1014.28 1014.48 1014.70 1014.79 1015.03 1015.23 1015.56 1015.89 1016.11 1016.42 1016.60 1016.20 1016.05 1015.55 1015.63 1015.53 1015.81 1016.27 1015.86 1015.31 1015.09 1015.22 1015.55 1015.77 1016.06 1016.34 1016.19
1023.27 1022.94 1022.49 1021.91 1021.28 1020.46 1019.86 1018.56 1018.34 1018.44 1017.93 1017.33 1016.83 1016.12 1015.02 1014.70 1014.49 1014.53 1014.40 1014.70 1014.92 1015.25 1015.64 1015.56 1016.05 1016.43 1015.97 1015.86 1015.68 1015.55 1015.68 1015.72 1015.24 1015.17 1015.69 1015.64 1015.43 1014.75 1014.46 1014.85 1014.99 1015.32 1015.22 1015.43 1015.37
1023.27 1022.92 1022.48 1021.87 1021.21 1020.53 1020.18 1020.14 1020.40 1020.58 1019.07 1016.73 1015.96 1015.67 1015.01 1014.67 1014.73 1014.62 1014.50 1015.10 1015.35 1015.74 1015.86 1016.24 1016.09 1015.73 1015.44 1015.39 1015.36 1015.41 1015.58 1015.56 1015.33 1015.36 1015.66 1015.29 1014.75 1013.81 1013.48 1013.32 1013.49 1014.02 1014.31 1014.29 1014.67
1023.29 1022.90 1022.47 1021.83 1021.16 1020.48 1020.67 1020.46 1020.03 1019.95 1019.64 1016.34 1015.09 1014.59 1014.45 1014.76 1014.84 1014.48 1014.61 1014.98 1015.40 1015.85 1015.93 1016.23 1015.61 1015.15 1015.23 1015.27 1015.39 1015.61 1015.81 1015.76 1015.93 1015.64 1015.33 1015.43 1014.54 1013.04 1011.89 1011.96 1012.34 1012.76 1012.85 1013.14 1013.43
1023.38 1022.92 1022.52 1021.88 1021.30 1021.07 1020.73 1020.38 1019.98 1019.91 1019.42 1016.23 1014.66 1014.13 1014.11 1014.56 1014.94 1014.41 1014.35 1014.79 1015.12 1015.57 1015.69 1015.71 1015.21 1015.12 1015.25 1015.43 1015.52 1015.79 1015.83 1015.99 1016.22 1016.66 1016.43 1015.76 1015.28 1012.74 1011.55 1011.41 1011.72 1011.95 1012.31 1012.29 1012.56
1023.51 1023.10 1022.66 1022.62 1022.57 1021.80 1021.15 1020.29 1019.98 1020.04 1018.93 1015.69 1014.70 1014.12 1014.21 1014.96 1014.93 1014.88 1014.78 1014.80 1015.27 1015.46 1015.80 1015.57 1015.39 1015.34 1015.36 1015.44 1015.40 1015.83 1016.03 1016.34 1016.59 1016.96 1017.07 1015.97 1015.92 1012.18 1011.41 1011.38 1011.15 1011.21 1011.49 1011.47 1011.65
1023.69 1023.35 1022.88 1022.28 1022.50 1021.55 1020.71 1020.27 1020.19 1020.00 1017.27 1015.43 1014.93 1014.67 1014.91 1015.09 1015.24 1015.32 1015.30 1015.29 1015.39 1015.77 1015.72 1015.65 1015.33 1015.34 1015.28 1015.52 1015.71 1016.04 1016.41 1016.80 1017.11 1017.61 1017.69 1015.48 1015.02 1011.87 1010.91 1009.55 1009.94 1010.38 1010.68 1010.72 1011.17
1023.84 1023.44 1023.19 1022.43 1021.96 1021.17 1020.86 1020.75 1020.59 1019.14 1015.76 1015.48 1015.01 1015.06 1015.27 1015.56 1015.66 1015.74 1015.92 1016.12 1016.13 1016.60 1016.41 1015.87 1015.50 1015.35 1015.37 1015.96 1016.26 1016.52 1017.32 1017.84 1018.24 1018.25 1016.84 1014.92 1014.40 1010.71 1009.04 1008.36 1008.19 1008.91 1009.64 1010.04 1010.51
1023.71 1023.32 1022.79 1022.31 1021.67 1021.63 1021.60 1021.56 1020.23 1017.30 1015.67 1014.82 1014.57 1014.92 1015.48 1015.29 1015.52 1015.78 1016.19 1016.46 1016.33 1016.47 1016.47 1016.24 1015.89 1015.61 1015.50 1015.83 1016.22 1016.86 1017.40 1017.81 1017.77 1017.72 1016.33 1014.52 1012.75 1009.09 1007.42 1006.78 1007.06 1007.50 1008.39 1009.48 1010.32
1023.51 1022.94 1022.54 1021.85 1021.59 1021.86 1022.31 1021.73 1018.95 1016.85 1015.32 1014.76 1014.75 1015.04 1015.12 1014.91 1015.24 1015.73 1016.00 1016.04 1015.73 1015.95 1016.20 1015.77 1015.80 1015.64 1015.77 1015.93 1016.22 1016.80 1017.25 1017.16 1017.49 1017.20 1016.72 1013.93 1011.29 1008.40 1007.04 1006.71 1007.12 1007.69 1008.64 1009.26 1009.83
1023.98 1023.14 1022.32 1021.45 1021.27 1021.75 1022.44 1020.62 1018.30 1016.22 1015.16 1014.76 1014.72 1014.65 1014.94 1014.91 1015.29 1015.66 1015.73 1014.58 1014.97 1014.72 1014.89 1015.20 1015.68 1016.16 1016.33 1016.34 1016.39 1016.68 1017.20 1017.42 1017.85 1017.84 1016.87 1013.80 1011.56 1008.76 1007.66 1007.30 1007.52 1008.03 1008.38 1008.93 1009.39
1024.15 1023.48 1022.19 1021.77 1021.52 1021.66 1021.19 1020.14 1018.19 1016.42 1016.14 1015.50 1014.90 1014.76 1014.79 1014.83 1014.98 1015.34 1015.00 1014.10 1013.76 1013.88 1014.52 1015.09 1015.66 1016.97 1016.88 1016.69 1016.43 1017.10 1017.19 1017.38 1017.61 1017.46 1016.56 1014.61 1011.35 1008.03 1007.47 1007.11 1007.04 1007.58 1007.91 1008.32 1008.92
1024.53 1023.93 1022.57 1021.61 1022.09 1021.23 1020.27 1019.34 1018.52 1017.06 1016.60 1016.18 1015.28 1015.08 1014.95 1014.77 1014.95 1014.92 1014.42 1013.82 1013.35 1013.36 1014.45 1014.80 1015.68 1016.64 1016.62 1015.70 1015.72 1016.01 1016.29 1016.75 1017.49 1017.01 1016.15 1014.72 1010.75 1007.72 1007.10 1006.77 1006.79 1007.11 1007.66 1008.03 1008.45
1024.92 1023.96 1022.84 1022.34 1021.88 1021.25 1020.51 1019.48 1018.74 1018.28 1017.24 1016.72 1015.87 1015.39 1015.03 1015.16 1015.31 1014.57 1013.91 1013.59 1013.43 1013.70 1013.96 1014.66 1015.64 1016.61 1016.20 1016.21 1015.86 1015.80 1015.68 1015.60 1016.04 1016.26 1015.48 1014.65 1010.23 1007.76 1006.97 1006.48 1006.51 1007.15 1007.64 1007.91 1008.35
1025.45 1024.37 1023.50 1023.27 1022.69 1022.02 1020.92 1019.65 1018.68 1017.93 1017.46 1017.06 1016.68 1016.30 1016.15 1015.57 1015.22 1014.86 1014.43 1014.12 1014.00 1013.88 1014.31 1014.61 1015.57 1015.84 1015.56 1015.09 1015.07 1015.38 1015.04 1015.08 1015.42 1015.39 1014.42 1012.12 1010.32 1008.24 1007.29 1006.89 1006.67 1007.04 1007.28 1007.49 1007.87
1025.60 1024.93 1023.76 1023.60 1023.17 1022.55 1021.95 1020.27 1019.21 1018.47 1017.66 1017.08 1016.48 1016.51 1016.70 1016.25 1015.44 1014.87 1014.68 1014.52 1014.52 1014.28 1014.65 1015.33 1015.82 1015.64 1015.10 1014.61 1014.48 1014.30 1013.98 1013.89 1014.01 1013.58 1012.73 1011.03 1009.61 1008.37 1007.07 1007.09 1006.88 1006.87 1006.83 1007.17 1007.42
1025.60 1025.20 1024.67 1024.23 1023.59 1022.83 1022.08 1020.91 1020.21 1019.46 1018.85 1017.53 1016.86 1016.91 1016.63 1015.91 1015.89 1015.35 1014.83 1014.59 1014.48 1014.93 1015.11 1015.28 1015.45 1015.47 1014.88 1014.38 1014.02 1013.34 1012.49 1012.05 1011.84 1011.57 1010.88 1010.43 1007.57 1007.86 1007.16 1006.98 1006.90 1006.81 1006.86 1007.03 1006.61
1024.98 1024.86 1024.96 1024.33 1024.08 1023.90 1022.69 1021.77 1020.67 1020.14 1019.09 1018.43 1018.14 1017.49 1016.63 1016.08 1015.46 1014.79 1014.27 1014.20 1014.22 1014.67 1015.42 1015.74 1015.71 1015.75 1014.76 1014.50 1013.89 1012.02 1009.10 1009.66 1009.76 1009.29 1009.02 1008.34 1005.95 1006.54 1006.50 1006.50 1005.99 1005.90 1006.24 1006.08 1005.84
Thickness
5678 5679 5679 5680 5682 5684 5687 5690 5694 5699 5704 5709 5713 5718 5721 5724 5731 5732 5724 5730 5730 5730 5732 5731 5732 5733 5734 5727 5732 5731 5696 5692 5708 5725 5724 5744 5739 5751 5752 5742 5746 5745 5741 5744 5740
5676 5677 5678 5680 5682 5685 5687 5690 5694 5698 5704 5710 5714 5718 5721 5723 5725 5726 5736 5734 5731 5732 5728 5722 5718 5725 5714 5721 5721 5708 5687 5705 5723 5732 5730 5741 5742 5740 5740 5735 5734 5735 5739 5742 5740
5675 5676 5677 5679 5682 5685 5688 5691 5695 5699 5704 5709 5714 5719 5723 5723 5721 5728 5738 5735 5733 5732 5730 5728 5726 5722 5712 5722 5718 5715 5698 5722 5725 5733 5738 5738 5741 5745 5738 5731 5739 5735 5737 5740 5738
5674 5676 5678 5679 5682 5685 5689 5692 5697 5700 5704 5709 5714 5719 5725 5725 5700 5735 5739 5737 5735 5733 5729 5725 5720 5713 5709 5706 5720 5708 5722 5727 5726 5731 5733 5734 5745 5738 5743 5744 5758 5752 5749 5742 5739
5674 5675 5677 5679 5682 5686 5690 5694 5698 5702 5706 5710 5714 5718 5725 5718 5720 5743 5741 5739 5738 5734 5725 5720 5713 5712 5706 5711 5721 5714 5719 5726 5724 5728 5732 5738 5735 5738 5744 5755 5759 5757 5750 5746 5744
5675 5676 5678 5679 5683 5686 5691 5695 5700 5704 5708 5711 5714 5718 5717 5707 5746 5746 5744 5741 5738 5733 5726 5726 5716 5719 5714 5716 5711 5719 5722 5723 5724 5726 5732 5730 5732 5736 5751 5760 5755 5754 5749 5748 5748
5675 5676 5678 5681 5683 5687 5692 5697 5701 5706 5710 5713 5715 5717 5714 5718 5748 5747 5746 5742 5741 5736 5725 5729 5728 5718 5716 5712 5724 5722 5710 5716 5722 5726 5726 5734 5723 5734 5752 5760 5753 5754 5751 5751 5753
5675 5676 5679 5681 5684 5689 5694 5700 5705 5709 5712 5715 5716 5717 5709 5746 5747 5747 5746 5741 5744 5742 5736 5735 5733 5723 5719 5721 5718 5709 5708 5694 5724 5727 5730 5729 5717 5753 5756 5755 5752 5751 5752 5757 5759
5675 5676 5679 5682 5686 5691 5697 5704 5710 5713 5715 5715 5715 5713 5710 5745 5738 5746 5746 5736 5739 5740 5739 5739 5731 5719 5720 5703 5691 5703 5686 5697 5717 5731 5728 5725 5723 5752 5759 5756 5753 5753 5753 5758 5762
5673 5675 5678 5682 5687 5692 5699 5711 5717 5714 5716 5715 5718 5706 5723 5725 5739 5743 5747 5743 5733 5731 5726 5724 5715 5704 5700 5690 5676 5698 5702 5714 5711 5727 5729 5724 5725 5744 5757 5757 5758 5759 5760 5762 5765
5671 5673 5677 5681 5686 5692 5696 5704 5702 5702 5708 5708 5713 5716 5729 5736 5742 5736 5742 5735 5732 5723 5704 5717 5698 5691 5702 5711 5718 5720 5714 5708 5725 5737 5730 5724 5729 5745 5757 5757 5757 5761 5765 5766 5770
5668 5671 5675 5679 5684 5690 5692 5688 5683 5683 5683 5714 5720 5721 5731 5735 5722 5728 5739 5719 5714 5700 5710 5702 5693 5711 5725 5725 5722 5719 5713 5709 5729 5732 5731 5730 5735 5753 5764 5767 5773 5771 5771 5775 5775
5666 5669 5673 5678 5683 5688 5685 5683 5689 5690 5676 5707 5722 5723 5726 5729 5718 5722 5728 5720 5711 5702 5703 5691 5712 5727 5724 5719 5715 5713 5709 5714 5714 5725 5730 5733 5731 5756 5774 5781 5780 5781 5786 5787 5785
5663 5667 5670 5676 5679 5680 5680 5684 5687 5689 5665 5698 5714 5723 5725 5723 5710 5732 5731 5722 5714 5702 5705 5704 5721 5719 5716 5711 5714 5703 5717 5719 5716 5704 5697 5732 5704 5746 5774 5777 5782 5782 5783 5790 5791
5659 5662 5666 5667 5667 5669 5675 5682 5685 5681 5653 5708 5711 5730 5723 5708 5713 5715 5726 5719 5703 5705 5708 5698 5708 5708 5707 5709 5720 5706 5717 5714 5714 5705 5705 5717 5707 5742 5771 5774 5778 5783 5788 5793 5796
5652 5656 5660 5665 5666 5671 5677 5680 5678 5662 5659 5698 5705 5703 5700 5705 5706 5708 5707 5716 5714 5703 5706 5699 5718 5713 5709 5714 5716 5716 5711 5706 5705 5692 5681 5712 5716 5740 5761 5782 5787 5790 5792 5798 5799
5645 5649 5652 5658 5661 5670 5673 5671 5653 5647 5706 5693 5694 5698 5694 5688 5693 5694 5690 5686 5679 5671 5673 5693 5699 5711 5714 5703 5707 5706 5684 5666 5678 5673 5683 5723 5719 5752 5790 5797 5804 5803 5799 5802 5802
5637 5642 5647 5650 5658 5660 5660 5652 5646 5683 5690 5706 5703 5696 5682 5693 5690 5688 5682 5672 5682 5684 5673 5669 5675 5694 5707 5702 5693 5687 5683 5666 5682 5677 5697 5727 5720 5763 5800 5811 5814 5815 5811 5804 5801
5628 5636 5640 5643 5650 5649 5638 5630 5654 5677 5698 5695 5698 5682 5680 5694 5690 5683 5674 5673 5685 5681 5670 5674 5680 5700 5699 5702 5705 5694 5681 5697 5690 5692 5688 5713 5746 5781 5807 5810 5806 5804 5803 5801 5802
5615 5625 5631 5637 5641 5637 5622 5638 5662 5691 5697 5697 5680 5683 5675 5679 5680 5674 5674 5692 5687 5692 5694 5690 5675 5689 5689 5698 5700 5695 5694 5678 5671 5674 5683 5708 5727 5755 5783 5793 5796 5795 5800 5800 5802
5601 5611 5623 5626 5629 5624 5626 5632 5659 5678 5677 5676 5681 5680 5680 5677 5674 5670 5676 5693 5695 5697 5688 5687 5676 5669 5680 5675 5676 5676 5677 5682 5678 5672 5674 5685 5725 5777 5778 5787 5794 5794 5800 5802 5801
5584 5594 5608 5614 5608 5618 5631 5645 5650 5660 5662 5663 5676 5676 5672 5677 5668 5668 5672 5688 5702 5698 5677 5681 5664 5650 5666 5686 5688 5683 5681 5680 5658 5682 5676 5678 5713 5780 5790 5789 5793 5794 5797 5799 5802
5565 5577 5590 5597 5601 5610 5620 5631 5636 5636 5644 5648 5657 5666 5675 5667 5658 5665 5677 5687 5692 5689 5676 5677 5653 5644 5657 5669 5681 5680 5684 5688 5683 5674 5675 5665 5715 5777 5784 5793 5790 5789 5791 5795 5796
5542 5554 5572 5568 5574 5584 5601 5615 5620 5635 5632 5633 5638 5644 5646 5651 5657 5659 5662 5672 5677 5681 5674 5672 5651 5651 5649 5669 5670 5669 5678 5679 5679 5657 5687 5698 5724 5754 5769 5781 5789 5785 5788 5790 5793
5522 5529 5551 5558 5559 5562 5574 5594 5601 5607 5623 5628 5624 5627 5624 5628 5640 5644 5654 5655 5661 5668 5666 5655 5639 5651 5661 5667 5671 5674 5678 5676 5675 5689 5683 5721 5727 5749 5767 5765 5779 5783 5785 5785 5787
5502 5509 5514 5522 5537 5548 5554 5571 5575 5585 5594 5607 5613 5613 5613 5620 5624 5627 5639 5642 5647 5647 5643 5646 5635 5646 5653 5663 5660 5662 5681 5686 5686 5694 5700 5711 5736 5750 5755 5758 5763 5769 5776 5776 5784
5487 5490 5490 5507 5509 5505 5529 5546 5556 5562 5575 5583 5588 5591 5601 5610 5617 5625 5637 5643 5642 5635 5627 5630 5627 5629 5637 5651 5644 5648 5702 5699 5695 5704 5711 5699 5752 5757 5753 5753 5768 5775 5768 5775 5781